GPS BIIA-10 (PRN 32) 1 20959C 90103A 08282.69761574 .00000000 00000-0 00000-0 0 2828 2 20959 55.4241 293.0829 0141875 286.7408 353.4407 2.00555668 16 GPS BIIA-11 (PRN 24) 1 21552C 91047A 08282.69761574 .00000000 00000-0 00000-0 0 2826 2 21552 54.5509 231.1329 0075929 318.8101 175.1161 2.00564841 13 GPS BIIA-12 (PRN 25) 1 21890C 92009A 08282.69761574 -.00000000 00000-0 00000-0 0 2821 2 21890 55.3885 42.7791 0118114 287.8677 203.6349 2.00561603 18 GPS BIIA-14 (PRN 26) 1 22014C 92039A 08282.69761574 .00000000 00000-0 00000-0 0 2822 2 22014 56.9167 351.0312 0189879 54.4610 8.7507 2.00569316 12 GPS BIIA-15 (PRN 27) 1 22108C 92058A 08282.69761574 -.00000000 00000-0 00000-0 0 2828 2 22108 55.6529 44.8006 0214877 263.5544 200.6830 2.00558314 15 GPS BIIA-21 (PRN 09) 1 22700C 93042A 08282.69761574 -.00000000 00000-0 00000-0 0 2820 2 22700 55.7657 46.1737 0199144 82.7151 250.4468 2.00565456 11 GPS BIIA-22 (PRN 05) 1 22779C 93054A 08282.69761574 -.00000000 00000-0 00000-0 0 2829 2 22779 54.0783 102.8691 0091145 73.0576 187.3685 2.00562457 11 GPS BIIA-23 (PRN 04) 1 22877C 93068A 08282.69761574 .00000000 00000-0 00000-0 0 2822 2 22877 53.9679 228.6758 0082872 22.0405 212.6642 2.00572043 12 GPS BIIA-24 (PRN 06) 1 23027C 94016A 08282.69761574 -.00000000 00000-0 00000-0 0 2825 2 23027 53.4877 165.7607 0058980 270.6648 178.5229 2.00558439 16 GPS BIIA-25 (PRN 03) 1 23833C 96019A 08282.69761574 -.00000000 00000-0 00000-0 0 2825 2 23833 53.0557 161.9958 0111129 48.4657 31.0337 2.00559696 14 GPS BIIA-26 (PRN 10) 1 23953C 96041A 08282.69761574 .00000000 00000-0 00000-0 0 2822 2 23953 55.1049 289.6496 0079410 30.3622 104.0509 2.00559025 17 GPS BIIA-27 (PRN 30) 1 24320C 96056A 08282.69761574 -.00000000 00000-0 00000-0 0 2828 2 24320 54.4222 105.8754 0109056 80.3690 156.6107 2.00562521 19 GPS BIIR-02 (PRN 13) 1 24876C 97035A 08282.69761574 .00000000 00000-0 00000-0 0 2821 2 24876 57.0364 351.1304 0034235 89.0225 83.2944 2.00576985 17 GPS BIIA-28 (PRN 08) 1 25030C 97067A 08282.69761574 -.00000000 00000-0 00000-0 0 2820 2 25030 56.4633 51.4025 0105536 168.5279 268.5877 2.00559220 13 GPS BIIR-03 (PRN 11) 1 25933C 99055A 08282.69761574 .00000000 00000-0 00000-0 0 2820 2 25933 51.0238 216.8093 0085180 34.6055 298.0703 2.00565247 18 GPS BIIR-04 (PRN 20) 1 26360C 00025A 08282.69761574 .00000000 00000-0 00000-0 0 2824 2 26360 54.1665 287.0848 0032955 76.4972 186.7220 2.00553627 19 GPS BIIR-05 (PRN 28) 1 26407C 00040A 08282.69761574 -.00000000 00000-0 00000-0 0 2824 2 26407 55.2742 109.8334 0142468 240.5830 131.6187 2.00568247 13 GPS BIIR-06 (PRN 14) 1 26605C 00071A 08282.69761574 .00000000 00000-0 00000-0 0 2827 2 26605 56.6730 350.0941 0044722 237.4194 66.4825 2.00556567 17 GPS BIIR-07 (PRN 18) 1 26690C 01004A 08282.69761574 .00000000 00000-0 00000-0 0 2828 2 26690 54.1923 290.1612 0100433 220.3445 180.3172 2.00557700 10 GPS BIIR-08 (PRN 16) 1 27663C 03005A 08282.69761574 -.00000000 00000-0 00000-0 0 2823 2 27663 55.3791 109.3465 0048121 334.9985 175.1042 2.00562736 13 GPS BIIR-09 (PRN 21) 1 27704C 03010A 08282.69761574 .00000000 00000-0 00000-0 0 2824 2 27704 53.5966 229.5161 0144339 207.6331 249.8735 2.00562288 10 GPS BIIR-10 (PRN 22) 1 28129C 03058A 08282.69761574 .00000000 00000-0 00000-0 0 2828 2 28129 54.0577 290.5163 0053780 256.2073 111.5456 2.00564490 10 GPS BIIR-11 (PRN 19) 1 28190C 04009A 08282.69761574 -.00000000 00000-0 00000-0 0 2824 2 28190 54.8534 172.2686 0050182 330.9979 75.8309 2.00555936 17 GPS BIIR-12 (PRN 23) 1 28361C 04023A 08282.69761574 .00000000 00000-0 00000-0 0 2829 2 28361 55.6469 348.4626 0058065 165.3696 33.9200 2.00562754 19 GPS BIIR-13 (PRN 02) 1 28474C 04045A 08282.69761574 .00000000 00000-0 00000-0 0 2828 2 28474 54.0094 227.6059 0086637 153.1733 46.9091 2.00550364 18 GPS BIIRM-1 (PRN 17) 1 28874C 05038A 08282.69761574 -.00000000 00000-0 00000-0 0 2826 2 28874 54.9809 169.0193 0039429 203.0368 104.0015 2.00572350 10 GPS BIIRM-2 (PRN 31) 1 29486C 06042A 08282.69761574 -.00000000 00000-0 00000-0 0 2822 2 29486 55.5626 48.0345 0069590 288.2162 298.5650 2.00577990 17 GPS BIIRM-3 (PRN 12) 1 29601C 06052A 08282.69761574 -.00000000 00000-0 00000-0 0 2822 2 29601 55.2873 108.3961 0031617 308.2445 324.0461 2.00547675 19 GPS BIIRM-4 (PRN 15) 1 32260C 07047A 08282.69761574 .00000000 00000-0 00000-0 0 2821 2 32260 54.8549 347.5024 0012003 290.5813 120.5763 2.00559740 16 GPS BIIRM-5 (PRN 29) 1 32384C 07062A 08282.69761574 -.00000000 00000-0 00000-0 0 2826 2 32384 54.9901 169.4870 0036220 280.6882 260.1955 2.00574048 11 GPS BIIRM-6 (PRN 07) 1 32711C 08012A 08282.69761574 -.00000000 00000-0 00000-0 0 2826 2 32711 55.2500 48.2188 0021977 164.2181 307.1898 2.00561722 15